Location: Muenchen
(48.1800°N, 11.5800°E)
Time: 21:20:16
(UTC+01:00)

ISS - All Passes

Search period start: 22 January 2017 00:00
Search period end: 01 February 2017 00:00
Orbit: 399 x 410 km, 51.6° (Epoch: 23 January)

Date Brightness Start Highest point End Pass type
(mag) Time Alt. Az. Time Alt. Az. Time Alt. Az.
22 Jan - 01:30:33 10° WNW 01:33:42 43° N 01:36:50 10° ENE night (unlit)
22 Jan - 03:07:07 10° WNW 03:10:23 87° SSW 03:13:38 10° ESE night (unlit)
22 Jan - 04:44:12 10° W 04:46:30 18° SW 04:48:46 10° S night (unlit)
22 Jan - 21:26:01 10° S 21:28:29 20° SE 21:31:00 10° E night (unlit)
22 Jan - 23:01:24 10° WSW 23:04:39 85° NNW 23:07:56 10° ENE night (unlit)
23 Jan - 00:38:14 10° WNW 00:41:22 43° N 00:44:30 10° ENE night (unlit)
23 Jan - 02:14:54 10° WNW 02:18:09 67° NNE 02:21:22 10° ESE night (unlit)
23 Jan - 03:51:35 10° W 03:54:28 29° SW 03:57:19 10° SSE night (unlit)
23 Jan - 20:35:07 10° SSE 20:36:30 12° SE 20:37:54 10° ESE night (unlit)
23 Jan - 22:09:14 10° SW 22:12:27 64° SSE 22:15:41 10° ENE night (unlit)
23 Jan - 23:45:52 10° W 23:49:02 47° N 23:52:12 10° ENE night (unlit)
24 Jan - 01:22:40 10° WNW 01:25:51 52° NNE 01:29:02 10° E night (unlit)
24 Jan - 02:59:12 10° WNW 03:02:21 47° SSW 03:05:29 10° SE night (unlit)
24 Jan - 21:17:14 10° SW 21:20:18 39° SSE 21:23:22 10° ENE night (unlit)
24 Jan - 22:53:30 10° W 22:56:43 56° NNW 22:59:56 10° ENE night (unlit)
25 Jan - 00:30:22 10° WNW 00:33:32 45° N 00:36:40 10° E night (unlit)
25 Jan - 02:06:54 10° WNW 02:10:10 75° SSW 02:13:24 10° ESE night (unlit)
25 Jan - 03:44:15 10° W 03:46:11 15° SW 03:48:07 10° S night (unlit)
25 Jan - 20:25:29 10° SSW 20:28:11 24° SE 20:30:54 10° E night (unlit)
25 Jan - 22:01:09 10° WSW 22:04:25 76° NNW 22:07:41 10° ENE night (unlit)
25 Jan - 23:38:01 10° WNW 23:41:10 43° N 23:44:17 10° ENE night (unlit)
26 Jan - 01:14:39 10° WNW 01:17:54 75° NNE 01:21:09 10° ESE night (unlit)
26 Jan - 02:51:26 10° W 02:54:09 24° SW 02:56:50 10° SSE night (unlit)
26 Jan - 19:34:12 10° S 19:36:07 15° SE 19:38:03 10° E visible
26 Jan - 21:08:54 10° WSW 21:12:09 75° SSE 21:15:25 10° ENE night (unlit)
26 Jan - 22:45:37 10° W 22:48:47 45° N 22:51:56 10° ENE night (unlit)
27 Jan - 00:22:22 10° WNW 00:25:35 56° NNE 00:28:47 10° E night (unlit)
27 Jan - 01:58:57 10° WNW 02:02:01 39° SSW 02:05:05 10° SE night (unlit)
27 Jan - 20:16:47 10° SW 20:19:55 46° SSE 20:23:05 10° ENE visible
27 Jan - 21:53:12 10° W 21:56:25 52° NNW 21:59:37 10° ENE night (unlit)
27 Jan - 23:30:03 10° WNW 23:33:14 46° N 23:36:23 10° E night (unlit)
28 Jan - 01:06:35 10° WNW 01:09:49 64° SSW 01:13:02 10° SE night (unlit)
28 Jan - 02:44:20 10° WSW 02:45:45 12° SW 02:47:11 10° SSW night (unlit)
28 Jan - 19:24:53 10° SSW 19:27:45 29° SE 19:30:38 10° E visible
28 Jan - 21:00:48 10° WSW 21:04:03 68° NNW 21:07:19 10° ENE night (unlit)
28 Jan - 22:37:42 10° WNW 22:40:50 43° N 22:43:58 10° ENE night (unlit)
29 Jan - 00:14:16 10° WNW 00:17:33 84° NNE 00:20:48 10° ESE night (unlit)
29 Jan - 01:51:12 10° W 01:53:42 21° SW 01:56:12 10° S night (unlit)
29 Jan - 18:33:22 10° S 18:35:39 18° SE 18:37:55 10° E visible
29 Jan - 20:08:28 10° WSW 20:11:44 86° SSE 20:15:01 10° ENE visible
29 Jan - 21:45:16 10° WNW 21:48:25 44° N 21:51:34 10° ENE night (unlit)
29 Jan - 23:21:57 10° WNW 23:25:12 61° NNE 23:28:26 10° E night (unlit)
30 Jan - 00:58:35 10° W 01:01:34 33° SW 01:04:32 10° SSE night (unlit)
30 Jan - 17:42:57 10° SE 17:43:35 10° SE 17:44:12 10° ESE visible
30 Jan - 19:16:16 10° SW 19:19:27 55° SSE 19:22:40 10° ENE visible
30 Jan - 20:52:49 10° W 20:56:00 49° N 20:59:11 10° ENE visible
30 Jan - 22:29:38 10° WNW 22:32:49 49° N 22:36:00 10° E night (unlit)
31 Jan - 00:06:09 10° WNW 00:09:21 55° SSW 00:12:32 10° SE night (unlit)
31 Jan - 01:44:53 10° SW 01:45:13 10° SW 01:45:33 10° SW night (unlit)
31 Jan - 18:24:14 10° SSW 18:27:13 34° SE 18:30:14 10° E visible
31 Jan - 20:00:21 10° W 20:03:36 61° NNW 20:06:51 10° ENE visible
31 Jan - 21:37:14 10° WNW 21:40:23 44° N 21:43:31 10° ENE night (unlit)
31 Jan - 23:13:47 10° WNW 23:17:03 85° SSW 23:20:18 10° ESE night (unlit)
